Погода в Рудничном

Россия / Кемеровская область (Кузбасс)     56°04′58″N   86°15′12″E
темп.,
°C
ветер,
м/с
пор.,
м/с
влажн.,
%
обл.,
%
осадки,
мм/ч
давл.,
гПа
погр.,
м
27 января, чт
чт2701:00−15ю119873 0.3 10309
04:00−17ю1110086 0.1 103120
07:00−17ю129981 0.1 103240
10:00−19ю2410089 0.0 103469
13:00−13ююз3691100 0.1 1034320
16:00−13ююз2592100 0.0 1035489
19:00−18ю1110067 0.1 10379
22:00−22ююз2210095 0.0 103815
28 января, пт
пт2801:00−23ю11100100 0.0 103821
04:00−23ю2110099 0.0 103733
07:00−23ю2510096 0.1 103878
10:00−23ю2710088 0.0 1037109
13:00−15ююз369297 0.0 1036299
16:00−14ююз3693100 0.0 1035355
19:00−16ю2796100 0.0 1034191
22:00−19ю259953 0.0 103484
29 января, сб
сб2901:00−21ююз2310088 0.0 103449
04:00−21ююз24100100 0.0 103460
07:00−20ю2599100 0.0 103480
10:00−17ююз2697100 0.0 1034124
13:00−12ююз3590100 0.0 1033249
16:00−11ююз259172 0.0 1032278
19:00−18ю229961 0.0 103414
22:00−21ююз2110058 0.0 103415
30 января, вс
вс3001:00−21ю1110072 0.0 103416
04:00−20ю1110066 0.0 103410
07:00−19ююв119970 0.0 10339
10:00−20ююв1110011 0.0 103310
13:00−10юв11845 0.0 1031157
16:00−8в11885 0.0 103056
19:00−17в119957 0.0 10319
22:00−20вюв1110060 0.0 10319
31 января, пн
пн3101:00−21юв1110044 0.0 10319
04:00−21ююв1110067 0.0 10319
07:00−21ю1110081 0.0 103110
10:00−17ююв119677 0.0 103128
13:00−7ююз249163 0.0 1030196
16:00−5ююз14925 0.0 1030226
19:00−13ююв119976 0.0 103210
22:00−15ю229976 0.0 103215